{"data":{"norad_id":53009,"intl_designator":"2022-076Z","name":"STARLINK-4277","alt_names":[],"object_type":"PAYLOAD","status":"ACTIVE","operator":null,"country":"US","launch_date":"2022-07-07","launch_site_code":"AFETR","launch_vehicle":null,"mission":null,"orbit_class":"UNKNOWN","rcs_meters":null,"size_class":null,"mass_kg":null,"dimensions":null,"purposes":["comms"],"wikipedia_slug":null,"has_3d_model":false,"image_url":null,"decayed_at":null,"tle_current":{"epoch":"2026-05-25T03:30:20.073024Z","epoch_age_seconds":72504,"freshness":"FRESH","line1":"1 53009U 22076Z   26145.14606566  .00000298  00000+0  36808-4 0  9993","line2":"2 53009  53.2147 100.8929 0001310  85.9306 274.1836 15.08840536214521","mean_motion":15.08840536,"eccentricity":0.000131,"inclination_deg":53.2147,"raan_deg":100.8929,"arg_perigee_deg":85.9306,"mean_anomaly_deg":274.1836,"bstar":3.6808e-5,"rev_number":21452,"period_min":95.437520774561,"perigee_km":538.83550851069,"apogee_km":540.64799274335,"semimajor_km":6917.878750627,"source":"CELESTRAK","updated_at":"2026-05-25T13:38:17.278320Z"}}}